Location: Klein M�hlingen
(51.9472°N, 11.7453°E)
Time: 17:17:21
(UTC+00:00)

Nauka - Pass Details

Date: 01 October 2021
Orbit: 417 x 423 km, 51.6° (Epoch: 19 October)

Event Time Altitude Azimuth Distance (km) Brightness Sun altitude
Rises 18:15:30 0° 283° (WNW) 2,366 ? -13.9°
Reaches altitude 10° 18:17:40 10° 275° (W) 1,501 ? -14.2°
Maximum altitude 18:20:49 38° 206° (SSW) 655 ? -14.7°
Enters shadow 18:22:29 22° 151° (SSE) 965 ? -15.0°
